Location: Brno
(49.2000°N, 16.6330°E)
Time: 05:17:26
(UTC+01:00)

BREEZE M DEB (TANK) - Visible Passes

Search period start: 21 January 2017 00:00
Search period end: 31 January 2017 00:00
Orbit: 289 x 12000 km, 49.5° (Epoch: 19 January)

Date Brightness Start Highest point End Pass type
(mag) Time Alt. Az. Time Alt. Az. Time Alt. Az.
21 Jan 7.2 04:55:26 10° S 05:03:14 15° SSE 05:07:51 10° ESE visible
22 Jan 7.5 04:13:03 10° SSE 04:15:09 10° SE 04:16:57 10° SE visible
24 Jan 5.5 06:33:47 10° SSW 06:45:35 34° SSE 06:49:48 10° E visible
25 Jan 6.1 05:45:03 10° SSW 05:57:55 28° SSE 06:02:49 10° E visible
26 Jan 6.6 04:56:57 10° S 05:10:00 23° SSE 05:15:33 10° E visible
27 Jan 7.0 04:09:57 10° S 04:21:52 18° SE 04:27:45 10° ESE visible
28 Jan 7.3 03:25:02 10° SSE 03:33:33 14° SE 03:38:49 10° ESE visible
29 Jan 4.7 06:39:16 10° SW 06:51:34 47° SSE 06:55:32 10° E visible
30 Jan 5.3 05:49:35 10° SW 06:03:59 39° SSE 06:08:40 10° E visible
